Location: Silverdale
(47.6506°N, 122.6941°W)
Time: 04:35:44
(UTC+00:00)

Altair - Pass Details

Date: 06 October 2022
Orbit: 1501 x 1682 km, 47.2° (Epoch: 05 December)

Event Time Altitude Azimuth Distance (km) Brightness Sun altitude
Rises 19:23:06 0° 291° (WNW) 4,908 9.9 36.4°
Reaches altitude 10° 19:26:49 10° 281° (W) 3,932 9.6 36.5°
Maximum altitude 19:34:51 28° 228° (SW) 2,769 9.6 36.7°
Drops below altitude 10° 19:42:54 10° 174° (S) 3,926 11.0 36.9°
Sets 19:46:38 0° 163° (SSE) 4,899 11.1 36.9°
